Weather History for Falfurrias, TX

Change the Weather History Date:

Friday, February 15, 2013

  Actual Average (KNQI) Record (KNQI)
Temperature  
Mean Temperature 62 °F -  
Max Temperature 79 °F 71 °F - (-1)
Min Temperature 45 °F 51 °F - (-1)
Degree Days  
Heating Degree Days 3    
Growing Degree Days 12 (Base 50)    
Moisture  
Dew Point 47 °F    
Average Humidity 65    
Maximum Humidity 92    
Minimum Humidity 27    
Precipitation  
Precipitation 0.00 in - - ()
Sea Level Pressure  
Sea Level Pressure 30.13 in    
Wind  
Wind Speed 4 mph (NE)    
Max Wind Speed 18 mph    
Max Gust Speed 24 mph    
Visibility 10 miles    
Events      
Averages and records for this station are not official NWS values.
T = Trace of Precipitation, MM = Missing Value Source: NWS Daily Summary

Daily Weather History Graph

Daily Weather History Graph

Search for Another Location

Airport:

Trip Planner

Search our weather history database for the weather conditions in past years. The results will help you decide how hot, cold, wet, or windy it might be!

Date:

Astronomy

Feb. 15, 2013 Rise Set
Actual Time 7:08 AM CST 6:24 PM CST
Civil Twilight 6:45 AM CST 6:48 PM CST
Nautical Twilight 6:17 AM CST 7:15 PM CST
Astronomical Twilight 5:50 AM CST 7:42 PM CST
Moon 10:21 AM CST (2/15) 11:48 PM CST (2/15)
Length of Visible Light 12h 03m
Length of Day
11h 15m
Waxing Crescent, 30% of the Moon is Illuminated
Feb 15
Waxing Crescent
Feb 17
First Quarter
Feb 25
Full
Mar 4
Last Quarter
Mar 11
New

Hourly Weather History & Observations

Time (CST) Temp. Windchill Dew Point Humidity Pressure Visibility Wind Dir Wind Speed Gust Speed Precip Events Conditions
12:15 AM 52.7 °F - 47.3 °F 82% 30.06 in 10.0 mi Calm Calm - N/A   Clear
12:35 AM 50.4 °F - 45.7 °F 84% 30.06 in 10.0 mi Calm Calm - N/A   Clear
12:55 AM 48.7 °F - 45.0 °F 87% 30.05 in 10.0 mi Calm Calm - N/A   Clear
1:15 AM 49.5 °F - 44.4 °F 83% 30.06 in 10.0 mi Calm Calm - N/A   Clear
1:35 AM 48.4 °F - 44.8 °F 87% 30.06 in 10.0 mi Calm Calm - N/A   Clear
1:55 AM 48.4 °F - 44.6 °F 87% 30.07 in 10.0 mi Calm Calm - N/A   Clear
2:15 AM 48.7 °F - 44.4 °F 85% 30.06 in 10.0 mi Calm Calm - N/A   Clear
2:35 AM 47.7 °F - 43.7 °F 86% 30.07 in 10.0 mi Calm Calm - N/A   Clear
2:55 AM 47.8 °F - 44.4 °F 88% 30.07 in 10.0 mi Calm Calm - N/A   Clear
3:15 AM 47.3 °F - 44.1 °F 88% 30.07 in 10.0 mi Calm Calm - N/A   Clear
3:35 AM 47.3 °F - 44.1 °F 88% 30.06 in 10.0 mi North 3.5 mph - N/A   Clear
3:55 AM 47.7 °F - 45.0 °F 90% 30.07 in 10.0 mi North 3.5 mph - N/A   Clear
4:15 AM 47.7 °F - 45.0 °F 90% 30.07 in 10.0 mi North 4.6 mph - N/A   Clear
4:35 AM 47.5 °F - 44.1 °F 88% 30.08 in 10.0 mi Calm Calm - N/A   Clear
5:15 AM 45.7 °F - 43.2 °F 91% 30.09 in 10.0 mi Calm Calm - N/A   Clear
5:35 AM 46.4 °F 44.3 °F 43.7 °F 90% 30.09 in 10.0 mi NNW 4.6 mph - N/A   Clear
5:55 AM 46.8 °F - 44.1 °F 90% 30.09 in 10.0 mi North 3.5 mph - N/A   Clear
6:15 AM 46.6 °F - 44.1 °F 91% 30.10 in 10.0 mi North 4.6 mph - N/A   Clear
6:35 AM 46.8 °F - 44.1 °F 90% 30.11 in 10.0 mi North 4.6 mph - N/A   Clear
6:55 AM 47.3 °F - 44.8 °F 91% 30.11 in 10.0 mi North 4.6 mph - N/A   Clear
7:15 AM 47.3 °F - 44.6 °F 90% 30.12 in 10.0 mi Calm Calm - N/A   Clear
7:35 AM 46.9 °F - 44.6 °F 92% 30.13 in 10.0 mi Calm Calm - N/A   Clear
7:55 AM 47.5 °F - 45.0 °F 91% 30.13 in 10.0 mi Calm Calm - N/A   Clear
8:15 AM 49.6 °F - 46.9 °F 90% 30.14 in 10.0 mi North 3.5 mph - N/A   Clear
8:35 AM 53.1 °F - 49.1 °F 86% 30.15 in 10.0 mi North 3.5 mph - N/A   Clear
8:55 AM 56.8 °F - 50.9 °F 80% 30.15 in 10.0 mi North 3.5 mph - N/A   Clear
9:15 AM 60.8 °F - 52.7 °F 75% 30.16 in 10.0 mi NNE 3.5 mph - N/A   Clear
9:35 AM 64.8 °F - 53.8 °F 68% 30.16 in 10.0 mi ENE 4.6 mph - N/A   Clear
9:55 AM 67.3 °F - 53.4 °F 61% 30.16 in 10.0 mi East 5.8 mph - N/A   Clear
10:15 AM 69.1 °F - 52.7 °F 56% 30.16 in 10.0 mi ESE 6.9 mph - N/A   Clear
10:35 AM 70.7 °F - 50.0 °F 48% 30.16 in 10.0 mi ESE 3.5 mph - N/A   Clear
10:55 AM 71.8 °F - 50.4 °F 47% 30.16 in 10.0 mi East 4.6 mph - N/A   Clear
11:15 AM 73.2 °F - 48.7 °F 42% 30.16 in 10.0 mi ESE 5.8 mph - N/A   Clear
11:35 AM 74.5 °F - 46.6 °F 37% 30.15 in 10.0 mi ENE 8.1 mph - N/A   Clear
11:55 AM 75.4 °F - 45.5 °F 34% 30.14 in 10.0 mi NE 6.9 mph - N/A   Clear
12:15 PM 75.6 °F - 46.6 °F 36% 30.14 in 10.0 mi NE 4.6 mph - N/A   Clear
12:35 PM 76.1 °F - 46.6 °F 35% 30.13 in 10.0 mi ENE 8.1 mph - N/A   Clear
1:15 PM 76.5 °F - 45.1 °F 33% 30.11 in 10.0 mi NNE 3.5 mph - N/A   Clear
1:35 PM 77.5 °F - 43.5 °F 30% 30.11 in 10.0 mi East 6.9 mph - N/A   Clear
1:55 PM 78.1 °F - 43.2 °F 29% 30.09 in 10.0 mi North 8.1 mph - N/A   Clear
2:15 PM 77.9 °F - 41.4 °F 27% 30.08 in 10.0 mi North 4.6 mph 10.4 mph N/A   Clear
2:35 PM 79.2 °F - 42.3 °F 27% 30.08 in 10.0 mi ENE 11.5 mph - N/A   Scattered Clouds
2:55 PM 77.0 °F - 41.2 °F 28% 30.08 in 10.0 mi NE 6.9 mph - N/A   Scattered Clouds
3:15 PM 76.5 °F - 47.5 °F 36% 30.08 in 10.0 mi East 10.4 mph 20.7 mph N/A   Scattered Clouds
3:35 PM 76.5 °F - 49.1 °F 38% 30.08 in 10.0 mi East 17.3 mph 24.2 mph N/A   Scattered Clouds
3:55 PM 76.5 °F - 49.8 °F 39% 30.09 in 10.0 mi East 15.0 mph 20.7 mph N/A   Scattered Clouds
4:15 PM 73.8 °F - 50.7 °F 44% 30.09 in 10.0 mi East 15.0 mph 24.2 mph N/A   Scattered Clouds
4:35 PM 73.9 °F - 51.1 °F 45% 30.09 in 10.0 mi East 18.4 mph - N/A   Clear
5:15 PM 72.0 °F - 50.5 °F 47% 30.11 in 10.0 mi East 15.0 mph 19.6 mph N/A   Clear
5:35 PM 70.7 °F - 49.6 °F 47% 30.11 in 10.0 mi East 15.0 mph 20.7 mph N/A   Clear
5:55 PM 69.6 °F - 49.3 °F 48% 30.11 in 10.0 mi East 15.0 mph 20.7 mph N/A   Clear
6:15 PM 68.0 °F - 49.6 °F 52% 30.12 in 10.0 mi East 13.8 mph 19.6 mph N/A   Clear
6:35 PM 66.2 °F - 50.4 °F 57% 30.14 in 10.0 mi East 6.9 mph - N/A   Clear
7:15 PM 64.8 °F - 50.7 °F 60% 30.16 in 10.0 mi East 8.1 mph - N/A   Clear
7:35 PM 63.7 °F - 50.9 °F 63% 30.17 in 10.0 mi East 5.8 mph - N/A   Clear
7:55 PM 63.0 °F - 50.0 °F 63% 30.17 in 10.0 mi East 4.6 mph - N/A   Clear
8:15 PM 61.9 °F - 49.6 °F 64% 30.19 in 10.0 mi East 3.5 mph - N/A   Clear
8:35 PM 60.8 °F - 49.1 °F 65% 30.20 in 10.0 mi NNE 3.5 mph - N/A   Clear
8:55 PM 59.7 °F - 49.1 °F 68% 30.22 in 10.0 mi ENE 3.5 mph - N/A   Clear
9:15 PM 59.9 °F - 48.6 °F 66% 30.23 in 10.0 mi Calm Calm - N/A   Clear
9:35 PM 59.5 °F - 48.4 °F 67% 30.24 in 10.0 mi Calm Calm - N/A   Clear
9:55 PM 58.5 °F - 48.2 °F 69% 30.24 in 10.0 mi Calm Calm - N/A   Mostly Cloudy
10:15 PM 58.8 °F - 48.7 °F 69% 30.24 in 10.0 mi Calm Calm - N/A   Overcast
10:35 PM 58.3 °F - 48.6 °F 70% 30.25 in 10.0 mi North 4.6 mph - N/A   Mostly Cloudy
10:55 PM 58.5 °F - 47.7 °F 67% 30.26 in 10.0 mi North 3.5 mph - N/A   Mostly Cloudy
11:15 PM 59.5 °F - 48.0 °F 66% 30.27 in 10.0 mi North 3.5 mph - N/A   Overcast
11:35 PM 60.3 °F - 47.5 °F 63% 30.29 in 10.0 mi North 18.4 mph 24.2 mph N/A   Overcast
11:55 PM 61.7 °F - 44.8 °F 54% 30.30 in 10.0 mi NNE 15.0 mph 19.6 mph N/A   Overcast